User: anonymous   Login
Location: Hohe Wand Kleine Kanzel
(47.8330°N, 16.0170°E)
Time: 11:10:37
(UTC+02:00)
Language:

Max Valier Satellite - Orbit

View from above orbital plane
View from above orbital plane
View from above satellite
View from above satellite

Ground track
Ground track

The orbit data is extracted from the following two-line orbital elements,

1 42778U 17036P   21269.89262481  .00003061  00000-0  12910-3 0  9991
2 42778  97.2449 315.1445 0012081 170.0292 190.1188 15.23975051236738
Epoch (UTC): 26 September 2021 21:25:22
Eccentricity: 0.0012081
inclination: 97.2449°
perigee height: 485 km
apogee height: 502 km
right ascension of ascending node: 315.1445°
argument of perigee: 170.0292°
revolutions per day: 15.23975051
mean anomaly at epoch: 190.1188°
orbit number at epoch: 23673

The dashed part of the orbit path shows where the satellite is in the earth's shadow,  

DLR